User: anonymous   Login
Location: San Gennaro Vesuviano
(40.8833°N, 14.5333°E)
Time: 04:24:01
(UTC+00:00)
Language:

Cosmos 1553 Rocket - Orbit

View from above orbital plane
View from above orbital plane
View from above satellite
View from above satellite

Ground track
Ground track

The orbit data is extracted from the following two-line orbital elements,

1 14974U 84046B   21169.41527788  .00000110  00000-0  96040-4 0  9993
2 14974  82.9347 134.4331 0043903 227.8851 245.5453 13.76943953863185
Epoch (UTC): 18 June 2021 09:58:00
Eccentricity: 0.0043903
inclination: 82.9347°
perigee height: 942 km
apogee height: 1007 km
right ascension of ascending node: 134.4331°
argument of perigee: 227.8851°
revolutions per day: 13.76943953
mean anomaly at epoch: 245.5453°
orbit number at epoch: 86318

The dashed part of the orbit path shows where the satellite is in the earth's shadow,  

DLR